date,time,DOY,Ta_1_1_1,RH_1_1_1,LWin_1_1_1,LWout_1_1_1,SWin_1_1_1,SWout_1_1_1,PPFD_1_1_1,SWC_1_1_1,Ts_1_1_1
[yyyy-mm-dd],[HH:MM],[ddd.ddd],[K],[%],[W+1m-2],[W+1m-2],[W+1m-2],[W+1m-2],[µmol+1m-2s-1],[m+3m-3],[K]
2013-01-15,00:30,15.020,256.37166666666661,79.682666666666677,-4.8190000000000017,-9999.0,0.64199999999999990,-3.1019999999999999,6.33333333333333491E-003,-9999.0,279.90999999999991
2013-01-15,01:00,15.041,256.53133333333335,78.818666666666701,-4.4969999999999999,-9999.0,0.40500000000000003,-2.3799999999999999,9.00000000000000105E-003,-9999.0,279.90999999999991
2013-01-15,01:30,15.062,256.30766666666671,79.478666666666655,-3.7246666666666663,-9999.0,4.83333333333333393E-002,-2.2566666666666668,3.66666666666666616E-003,-9999.0,279.90999999999991
2013-01-15,02:00,15.083,256.56766666666664,79.155999999999992,-3.0613333333333332,-9999.0,0.15033333333333332,-1.7406666666666664,1.66666666666666699E-002,-9999.0,279.90999999999991
2013-01-15,02:30,15.104,256.75633333333332,79.311666666666653,-2.3809999999999998,-9999.0,1.09999999999999994E-002,-1.2436666666666665,8.00000000000000017E-003,-9999.0,279.90999999999991
2013-01-15,03:00,15.124,257.15000000000003,78.821000000000012,-2.6803333333333326,-9999.0,4.00000000000000008E-003,-1.2833333333333337,3.99999999999999922E-003,-9999.0,279.90999999999991
2013-01-15,03:30,15.145,257.48233333333337,78.252666666666684,-3.1123333333333338,-8.5585714285714296,-6.10000000000000056E-002,-1.4363333333333330,6.66666666666667078E-004,-9999.0,279.90999999999991
2013-01-15,04:00,15.166,257.47766666666672,78.053000000000011,-2.3053333333333339,-7.4927586206896546,-0.30733333333333335,-0.89166666666666672,1.33333333333333329E-003,-9999.0,279.90999999999991
2013-01-15,04:30,15.187,257.73633333333333,75.501333333333335,-1.9493333333333331,-7.9278260869565207,-9.89999999999999769E-002,-0.89899999999999969,4.33333333333333313E-003,-9999.0,279.90999999999991
2013-01-15,05:00,15.208,258.03433333333345,74.563333333333347,-2.0323333333333333,-9.1046153846153857,-9.06666666666666593E-002,-0.91899999999999993,7.66666666666666798E-003,-9999.0,279.90999999999991
2013-01-15,05:30,15.229,258.49566666666664,72.396000000000001,-2.2063333333333333,-8.2836363636363632,-6.30000000000000004E-002,-0.70899999999999996,5.00000000000000097E-003,-9999.0,279.90999999999991
2013-01-15,06:00,15.249,258.86666666666673,74.972666666666640,-4.5343333333333335,-9999.0,0.23333333333333334,-2.5576666666666670,5.66666666666666794E-003,-9999.0,279.90999999999991
2013-01-15,06:30,15.270,259.14133333333336,79.168999999999969,-4.9636666666666667,-9999.0,0.40233333333333332,-2.6276666666666668,6.00000000000000012E-003,-9999.0,279.90999999999991
2013-01-15,07:00,15.291,259.34833333333336,82.312666666666658,-5.5276666666666658,-9999.0,0.45766666666666667,-3.1656666666666666,2.46666666666666735E-002,-9999.0,279.90999999999991
2013-01-15,07:30,15.312,259.35899999999998,83.746666666666641,-5.4576666666666664,-9999.0,0.56233333333333324,-2.4236666666666671,1.1843333333333335,-9999.0,279.90999999999991
2013-01-15,08:00,15.333,259.46933333333340,84.070999999999998,-5.6169999999999991,-9999.0,3.6066666666666665,12.333333333333336,21.301333333333332,-9999.0,279.90999999999991
2013-01-15,08:30,15.354,259.89300000000003,83.197999999999993,-5.8830000000000009,-9999.0,12.808666666666669,75.261333333333340,89.910666666666657,-9999.0,279.90999999999991
2013-01-15,09:00,15.374,260.40733333333338,81.954333333333338,-5.5610000000000008,-9999.0,23.761333333333329,149.48666666666668,198.52699999999999,-9999.0,279.90999999999991
2013-01-15,09:30,15.395,261.02700000000004,80.915999999999997,-4.8323333333333345,-9999.0,30.304666666666673,192.70233333333326,295.02400000000006,-9999.0,279.90999999999991
2013-01-15,10:00,15.416,261.97133333333335,77.691333333333347,-5.6449999999999996,-9999.0,41.627666666666656,299.38866666666667,438.87700000000007,-9999.0,279.90999999999991
2013-01-15,10:30,15.437,263.30700000000002,71.172333333333327,-6.1460000000000008,-9999.0,48.145999999999994,330.36900000000003,540.98499999999990,-9999.0,279.90999999999991
2013-01-15,11:00,15.458,263.68800000000005,66.664333333333346,-5.6956666666666660,-9999.0,53.814666666666668,350.18033333333335,619.56499999999994,-9999.0,279.90999999999991
2013-01-15,11:30,15.479,264.08033333333339,63.477000000000004,-5.2060000000000004,-9999.0,57.892999999999986,378.91833333333329,680.45133333333320,-9999.0,279.90999999999991
2013-01-15,12:00,15.499,265.13533333333334,54.083333333333343,-5.7446666666666664,-9999.0,60.965999999999994,396.42333333333335,717.06033333333335,-9999.0,279.90999999999991
2013-01-15,12:30,15.520,266.03433333333334,48.017333333333333,-6.0123333333333333,-9999.0,60.936000000000000,399.24199999999996,724.82399999999996,-9999.0,279.90999999999991
2013-01-15,13:00,15.541,266.66800000000001,46.584666666666664,-6.5349999999999993,-9999.0,58.788666666666657,387.28066666666666,705.55966666666654,-9999.0,279.90999999999991
2013-01-15,13:30,15.562,267.08066666666662,43.140666666666668,-6.8696666666666664,-9999.0,53.992333333333335,364.99966666666660,664.86166666666691,-9999.0,279.90999999999991
2013-01-15,14:00,15.583,267.59133333333335,42.559333333333335,-7.6663333333333323,-9999.0,47.614333333333335,327.73533333333330,594.83566666666661,-9999.0,279.90999999999991
2013-01-15,14:30,15.604,267.75366666666667,43.658333333333339,-8.2280000000000015,-9999.0,38.563666666666663,279.70933333333340,504.12466666666666,-9999.0,279.90999999999991
2013-01-15,15:00,15.624,267.99100000000004,42.532333333333341,-9.2314285714285695,-9999.0,31.037666666666667,222.82799999999997,397.73966666666666,-9999.0,279.90999999999991
2013-01-15,15:30,15.645,268.07466666666664,43.349666666666671,-9.4443478260869576,-9999.0,23.591000000000005,159.72466666666668,281.30333333333334,-9999.0,279.90999999999991
2013-01-15,16:00,15.666,268.09199999999998,45.241666666666667,-9.6429999999999989,-9999.0,15.387333333333334,93.863666666666660,163.69800000000004,-9999.0,279.90999999999991
2013-01-15,16:30,15.687,267.88933333333335,47.190666666666665,-9.7050000000000001,-9999.0,6.8733333333333331,33.151666666666671,62.987666666666655,-9999.0,279.90999999999991
2013-01-15,17:00,15.708,267.47533333333342,49.492666666666679,-9.5986666666666682,-9999.0,1.4716666666666667,5.16666666666663471E-002,8.4139999999999997,-9999.0,279.90999999999991
2013-01-15,17:30,15.729,267.01333333333338,51.356666666666662,-9.8078260869565224,-9999.0,0.41899999999999998,-4.1719999999999997,0.14900000000000005,-9999.0,279.90999999999991
2013-01-15,18:00,15.749,266.58300000000003,53.606999999999985,-9.6482142857142854,-9999.0,0.45466666666666661,-4.1706666666666656,9.00000000000000279E-003,-9999.0,279.90999999999991
2013-01-15,18:30,15.770,266.28166666666669,56.163333333333327,-8.7516666666666652,-9999.0,0.49166666666666664,-3.9696666666666669,1.20000000000000020E-002,-9999.0,279.90999999999991
2013-01-15,19:00,15.791,265.99000000000001,57.848666666666681,-8.5266666666666655,-9999.0,0.46633333333333332,-3.9233333333333333,7.00000000000000188E-003,-9999.0,279.90999999999991
2013-01-15,19:30,15.812,265.84399999999999,60.657666666666664,-8.2010000000000005,-9999.0,0.51233333333333353,-3.6816666666666662,3.33333333333333311E-003,-9999.0,279.90999999999991
2013-01-15,20:00,15.833,265.81566666666674,63.642666666666656,-7.7536666666666667,-9999.0,0.43766666666666676,-3.2390000000000003,3.33333333333333355E-003,-9999.0,279.90999999999991
2013-01-15,20:30,15.854,266.03366666666670,65.384333333333345,-7.0356666666666685,-9999.0,0.30700000000000011,-2.5746666666666660,4.00000000000000008E-003,-9999.0,279.90999999999991
2013-01-15,21:00,15.874,266.31466666666677,67.695999999999984,-7.5306666666666651,-9999.0,0.47900000000000004,-3.1846666666666663,8.33333333333333322E-003,-9999.0,279.90999999999991
2013-01-15,21:30,15.895,266.57266666666669,69.134999999999991,-7.6460000000000008,-9999.0,0.49533333333333324,-3.2176666666666667,8.33333333333333322E-003,-9999.0,279.90999999999991
2013-01-15,22:00,15.916,266.62366666666668,70.397333333333322,-7.5866666666666651,-9999.0,0.47733333333333328,-3.3576666666666664,8.66666666666666800E-003,-9999.0,279.90999999999991
2013-01-15,22:30,15.937,266.50166666666672,71.827999999999989,-7.3423333333333334,-9999.0,0.42733333333333340,-3.3323333333333331,7.33333333333333406E-003,-9999.0,279.90999999999991
2013-01-15,23:00,15.958,266.50866666666667,72.158333333333317,-6.9953333333333321,-9999.0,0.39633333333333326,-3.1420000000000008,8.33333333333333322E-003,-9999.0,279.90999999999991
2013-01-15,23:30,15.979,266.56900000000002,71.769333333333336,-7.3083333333333327,-9999.0,0.44333333333333330,-3.2743333333333338,1.00000000000000019E-002,-9999.0,279.90999999999991
2013-01-16,00:00,16.000,266.56300000000005,71.675666666666672,-7.3606666666666642,-9999.0,0.42966666666666659,-3.2563333333333335,7.33333333333333406E-003,-9999.0,279.90999999999991
